�N����,�����b,�ŏ������i�x�j,���ϕ����i�x�j,�ő啗���i�x�j,�ŏ�����(m/s),���ϕ���(m/s),�ő啗��(m/s),�C��(���j,���x�i���j,�C��(hPa),�~�J��(mm),�~�J����(�b�j,�~�J���x(mm/h),�ő�~�J���x(mm/h),�~�Ђ傤��(hit/���u),�~�Ђ傤����(�b�j,�~�Ђ傤���x(hit/���uh),�ő�~�Ђ傤���x(hit/���uh),�q�[�^���x(���j,�q�[�^�[�d���iV),�d���d���iV),�Q�Ɠd���iV)
2014/04/01,00:00:01,111,113,116,2.1,2.4,2.6,18.6,72.2,1006.0,0.00,0,0.0,////,0.0,0,0.0,////,17.7,0.0,12.3,3.513
2014/04/01,00:10:01,158,165,172,1.2,1.6,1.9,18.6,72.6,1006.1,0.00,0,0.0,////,0.0,0,0.0,////,17.5,0.0,12.3,3.514
2014/04/01,00:20:01,127,130,133,1.7,1.8,2.0,18.7,72.3,1005.9,0.00,0,0.0,////,0.0,0,0.0,////,18.1,0.0,12.3,3.515
2014/04/01,00:30:01,134,138,144,1.5,1.7,1.8,18.6,73.1,1005.5,0.00,0,0.0,////,0.0,0,0.0,////,17.5,0.0,12.3,3.514
2014/04/01,00:40:01,121,126,130,1.7,1.9,2.2,18.6,73.9,1005.2,0.00,0,0.0,////,0.0,0,0.0,////,17.4,0.0,12.3,3.514
2014/04/01,00:50:01,115,118,121,2.1,2.3,2.4,18.5,74.5,1005.1,0.00,0,0.0,////,0.0,0,0.0,////,17.4,0.0,12.3,3.514
2014/04/01,01:00:01,128,132,137,1.3,1.4,1.5,18.5,74.8,1005.2,0.00,0,0.0,////,0.0,0,0.0,////,17.4,0.0,12.3,3.514
2014/04/01,01:10:01,157,168,176,1.7,1.9,2.2,18.6,74.1,1005.2,0.00,0,0.0,////,0.0,0,0.0,////,17.2,0.0,12.3,3.514
2014/04/01,01:20:01,137,145,154,0.9,1.0,1.2,18.7,73.9,1005.2,0.02,110,0.0,////,0.0,0,0.0,////,17.9,0.0,12.3,3.515
2014/04/01,01:30:01,133,141,148,1.4,1.6,1.7,18.6,74.0,1005.1,0.00,40,0.0,////,0.0,0,0.0,////,17.2,0.0,12.3,3.513
2014/04/01,01:40:01,152,155,158,2.5,2.7,2.8,18.5,74.7,1005.2,0.00,0,0.0,////,0.0,0,0.0,////,17.0,0.0,12.3,3.514
2014/04/01,01:50:01,142,150,160,0.9,1.1,1.4,18.5,73.9,1005.0,0.00,0,0.0,////,0.0,0,0.0,////,17.5,0.0,12.3,3.515
2014/04/01,02:00:01,133,141,150,0.6,0.9,1.2,18.5,74.2,1005.0,0.00,0,0.0,////,0.0,0,0.0,////,17.2,0.0,12.3,3.514
2014/04/01,02:10:01,108,143,193,0.1,0.3,0.5,18.5,73.9,1005.0,0.00,0,0.0,////,0.0,0,0.0,////,17.2,0.0,12.3,3.514
2014/04/01,02:20:01,126,131,140,1.5,1.7,1.8,18.5,72.9,1004.9,0.00,0,0.0,////,0.0,0,0.0,////,17.7,0.0,12.3,3.514
2014/04/01,02:30:01,142,148,157,1.1,1.3,1.5,18.5,73.1,1004.6,0.00,0,0.0,////,0.0,0,0.0,////,17.5,0.0,12.3,3.515
2014/04/01,02:40:01,124,129,132,1.3,1.4,1.5,18.6,72.9,1004.5,0.00,0,0.0,////,0.0,0,0.0,////,17.4,0.0,12.3,3.515
2014/04/01,02:50:01,246,248,250,0.7,0.8,0.9,18.6,73.3,1005.0,0.00,0,0.0,////,0.0,0,0.0,////,17.4,0.0,12.3,3.515
2014/04/01,03:00:01,046,047,047,0.7,0.8,0.9,18.7,73.2,1004.9,0.39,250,4.6,////,0.0,0,0.0,////,17.0,0.0,12.3,3.515
2014/04/01,03:10:01,118,120,124,1.5,1.6,1.8,18.4,74.9,1004.8,0.20,580,0.6,////,0.0,0,0.0,////,16.5,0.0,12.3,3.516
2014/04/01,03:20:01,136,139,142,0.9,0.9,1.0,18.0,77.9,1004.6,0.02,160,0.0,////,0.0,0,0.0,////,15.8,0.0,12.3,3.515
2014/04/01,03:30:01,157,159,162,0.8,1.0,1.3,17.8,79.0,1004.4,0.00,10,0.0,////,0.0,0,0.0,////,15.8,0.0,12.3,3.514
2014/04/01,03:40:01,184,191,200,0.9,0.9,1.0,17.8,79.7,1004.4,0.00,0,0.0,////,0.0,0,0.0,////,16.0,0.0,12.3,3.516
2014/04/01,03:50:01,153,153,154,0.9,0.9,1.0,17.8,79.9,1004.7,0.15,170,3.7,////,0.0,0,0.0,////,15.8,0.0,12.3,3.513
2014/04/01,04:00:01,094,100,106,1.1,1.3,1.5,17.9,81.1,1003.9,0.52,530,4.2,////,0.0,0,0.0,////,15.8,0.0,12.3,3.516
2014/04/01,04:10:01,107,109,110,2.0,2.2,2.4,17.5,83.9,1003.6,0.14,500,0.3,////,0.0,0,0.0,////,15.8,0.0,12.3,3.515
2014/04/01,04:20:01,100,105,108,1.9,2.1,2.2,17.4,85.2,1003.2,0.08,480,0.4,////,0.0,0,0.0,////,15.6,0.0,12.3,3.516
2014/04/01,04:30:01,109,112,115,2.6,3.0,3.3,17.4,85.6,1002.9,0.06,290,0.0,////,0.0,0,0.0,////,15.8,0.0,12.3,3.515
2014/04/01,04:40:01,073,081,095,1.5,1.9,2.4,17.5,85.3,1002.9,0.00,20,0.0,////,0.0,0,0.0,////,15.8,0.0,12.3,3.515
2014/04/01,04:50:01,114,117,120,3.6,3.8,3.9,17.5,85.0,1002.7,0.00,30,0.0,////,0.0,0,0.0,////,16.0,0.0,12.3,3.515
2014/04/01,05:00:01,083,089,095,3.6,4.5,5.1,17.7,83.2,1002.4,0.00,0,0.0,////,0.0,0,0.0,////,16.2,0.0,12.3,3.514
2014/04/01,05:10:01,103,107,114,5.1,5.7,6.4,17.8,81.7,1002.2,0.00,10,0.0,////,0.0,0,0.0,////,16.5,0.0,12.3,3.515
2014/04/01,05:20:01,100,102,104,5.1,5.7,6.3,17.9,80.6,1002.5,0.00,0,0.0,////,0.0,0,0.0,////,16.5,0.0,12.3,3.516
2014/04/01,05:30:01,096,098,099,4.2,5.7,6.8,18.1,79.6,1002.7,0.00,0,0.0,////,0.0,0,0.0,////,16.9,0.0,12.3,3.515
2014/04/01,05:40:01,091,099,106,3.2,3.4,3.7,18.1,79.3,1002.3,0.00,0,0.0,////,0.0,0,0.0,////,17.0,0.0,12.3,3.514
2014/04/01,05:50:01,095,106,120,5.9,6.8,7.7,18.3,81.1,1002.8,0.00,0,0.0,////,0.0,0,0.0,////,17.0,0.0,12.3,3.516
2014/04/01,06:00:01,096,102,106,4.6,5.2,5.7,18.3,81.4,1002.7,0.00,0,0.0,////,0.0,0,0.0,////,17.2,0.0,12.3,3.516
2014/04/01,06:10:01,109,112,117,3.5,4.0,4.6,18.3,81.0,1002.8,0.00,0,0.0,////,0.0,0,0.0,////,17.2,0.0,12.3,3.514
2014/04/01,06:20:01,103,104,105,4.2,4.3,4.5,18.4,81.2,1003.6,0.00,0,0.0,////,0.0,0,0.0,////,17.2,0.0,12.3,3.515
2014/04/01,06:30:01,090,093,096,3.2,3.3,3.4,18.4,80.8,1003.1,0.03,200,0.0,////,0.0,0,0.0,////,16.9,0.0,12.3,3.515
2014/04/01,06:40:01,094,101,106,5.2,5.7,6.3,18.2,78.7,1003.4,0.00,0,0.0,////,0.0,0,0.0,////,16.9,0.0,12.3,3.514
2014/04/01,06:50:01,105,111,118,2.4,2.9,3.4,18.3,78.2,1003.7,0.00,20,0.0,////,0.0,0,0.0,////,16.9,0.0,12.3,3.514
2014/04/01,07:00:01,105,112,123,4.2,5.0,5.4,18.5,79.2,1003.4,0.10,370,1.8,////,0.0,0,0.0,////,16.9,0.0,12.3,3.514
2014/04/01,07:10:01,097,103,111,5.7,6.0,6.2,18.2,81.1,1003.4,0.09,350,0.4,////,0.0,0,0.0,////,16.3,0.0,12.3,3.515
2014/04/01,07:20:01,102,104,105,3.8,4.7,5.2,18.2,82.1,1003.7,0.22,580,2.6,////,0.0,0,0.0,////,16.5,0.0,12.3,3.514
2014/04/01,07:30:01,103,108,111,4.0,4.2,4.5,17.2,77.5,1004.2,1.27,590,10.2,////,0.0,0,0.0,////,15.6,0.0,12.3,3.514
2014/04/01,07:40:01,080,097,112,3.6,4.2,4.8,16.7,77.6,1004.0,0.36,560,1.0,////,0.0,0,0.0,////,15.0,0.0,12.3,3.514
2014/04/01,07:50:01,080,085,092,3.7,4.4,4.9,16.3,76.8,1003.8,1.00,590,7.6,////,0.0,0,0.0,////,14.6,0.0,12.3,3.514
2014/04/01,08:00:01,049,058,069,2.9,3.7,4.5,16.0,78.7,1003.6,0.53,430,0.0,////,0.0,0,0.0,////,14.1,0.0,12.3,3.513
2014/04/01,08:10:01,019,031,046,1.4,2.2,3.0,16.1,77.0,1003.7,0.06,250,0.0,////,0.0,0,0.0,////,14.6,0.0,12.3,3.514
2014/04/01,08:20:01,052,065,074,2.8,3.1,3.3,16.5,80.2,1003.6,0.00,0,0.0,////,0.0,0,0.0,////,14.4,0.0,12.3,3.515
2014/04/01,08:30:01,060,068,072,3.3,3.6,3.8,16.6,80.4,1003.8,0.00,0,0.0,////,0.0,0,0.0,////,15.1,0.0,12.3,3.514
2014/04/01,08:40:01,063,075,084,2.1,2.3,2.7,16.5,77.1,1004.3,0.25,280,5.7,////,0.0,0,0.0,////,15.1,0.0,12.3,3.515
2014/04/01,08:50:01,050,059,066,4.4,4.8,5.2,16.0,77.7,1003.6,1.59,590,9.7,////,0.0,0,0.0,////,14.4,0.0,12.3,3.514
2014/04/01,09:00:01,073,092,102,4.1,4.4,5.0,16.2,81.3,1004.0,1.72,590,15.7,////,0.0,0,0.0,////,14.3,0.0,12.3,3.515
2014/04/01,09:10:01,042,075,092,4.2,5.0,5.5,15.8,83.0,1004.0,2.33,590,8.1,////,0.0,0,0.0,////,14.1,0.0,12.3,3.513
2014/04/01,09:20:01,082,088,092,5.0,5.3,5.5,15.6,83.3,1003.0,1.08,590,9.0,////,0.0,0,0.0,////,13.9,0.0,12.3,3.514
2014/04/01,09:30:01,029,059,090,1.8,2.8,3.9,16.6,88.3,1003.1,0.38,580,0.3,////,0.0,0,0.0,////,14.6,0.0,12.3,3.516
2014/04/01,09:40:01,054,061,067,5.6,6.7,8.2,16.6,88.1,1003.6,0.79,590,7.0,////,0.0,0,0.0,////,15.0,0.0,12.3,3.514
2014/04/01,09:50:01,094,100,104,7.1,8.0,8.6,16.4,88.7,1003.4,0.50,570,4.3,////,0.0,0,0.0,////,15.0,0.0,12.3,3.515
2014/04/01,10:00:01,076,082,089,3.3,4.3,4.9,16.3,89.0,1003.1,0.66,590,1.3,////,0.0,0,0.0,////,15.0,0.0,12.3,3.516
2014/04/01,10:10:01,076,087,105,6.7,7.2,7.6,16.5,89.1,1003.0,0.17,580,0.3,////,0.0,0,0.0,////,15.1,0.0,12.3,3.515
2014/04/01,10:20:01,073,090,108,5.1,5.7,6.1,16.7,89.3,1002.7,0.32,560,1.3,////,0.0,0,0.0,////,15.3,0.0,12.3,3.514
2014/04/01,10:30:01,103,108,113,5.6,6.6,7.4,16.4,88.2,1002.9,0.24,590,3.4,////,0.0,0,0.0,////,15.1,0.0,12.3,3.514
2014/04/01,10:40:01,075,087,101,3.6,4.8,7.5,16.7,88.9,1002.6,0.23,540,0.3,////,0.0,0,0.0,////,15.6,0.0,12.3,3.515
2014/04/01,10:50:01,102,109,112,8.9,9.7,10.8,16.8,89.0,1002.7,0.23,580,1.0,////,0.0,0,0.0,////,15.8,0.0,12.3,3.513
2014/04/01,11:00:01,094,106,113,6.9,8.4,10.1,16.6,88.5,1002.5,0.41,580,3.0,////,0.0,0,0.0,////,15.6,0.0,12.3,3.515
2014/04/01,11:10:01,088,094,105,5.6,6.2,7.0,16.8,88.5,1002.7,0.34,560,0.1,////,0.0,0,0.0,////,15.6,0.0,12.3,3.516
2014/04/01,11:20:01,088,095,107,5.8,7.1,7.7,17.0,89.0,1002.6,0.00,80,0.0,////,0.0,0,0.0,////,15.8,0.0,12.3,3.514
2014/04/01,11:30:01,105,111,122,8.3,8.6,8.8,17.3,89.2,1002.3,0.00,10,0.0,////,0.0,0,0.0,////,16.3,0.0,12.3,3.513
2014/04/01,11:40:01,068,089,105,2.4,3.2,4.6,17.5,88.9,1002.4,0.00,0,0.0,////,0.0,0,0.0,////,16.5,0.0,12.3,3.514
2014/04/01,11:50:01,084,097,106,5.9,6.7,8.0,17.7,89.1,1002.4,0.03,280,0.2,////,0.0,0,0.0,////,16.5,0.0,12.3,3.515
2014/04/01,12:00:01,066,085,101,5.6,5.9,6.2,17.6,88.9,1002.1,0.00,140,0.0,////,0.0,0,0.0,////,16.7,0.0,12.3,3.515
2014/04/01,12:10:01,098,107,112,5.3,5.9,6.8,17.8,89.4,1002.1,0.01,70,0.0,////,0.0,0,0.0,////,16.7,0.0,12.3,3.514
2014/04/01,12:20:01,091,096,106,9.2,10.8,11.6,17.6,89.4,1002.2,0.00,60,0.0,////,0.0,0,0.0,////,16.5,0.0,12.3,3.514
2014/04/01,12:30:01,080,089,097,4.8,5.7,6.5,17.5,89.2,1002.4,0.38,590,3.3,////,0.0,0,0.0,////,16.5,0.0,12.3,3.515
2014/04/01,12:40:01,089,093,097,6.4,6.6,7.0,17.7,90.5,1002.3,0.98,590,1.3,////,0.0,0,0.0,////,16.5,0.0,12.3,3.515
2014/04/01,12:50:01,064,089,107,3.8,4.6,5.9,17.1,90.5,1002.5,0.74,590,2.9,////,0.0,0,0.0,////,16.0,0.0,12.3,3.514
2014/04/01,13:00:01,103,107,114,5.0,5.8,6.8,16.9,90.9,1002.4,0.30,530,5.7,////,0.0,0,0.0,////,16.0,0.0,12.3,3.514
2014/04/01,13:10:01,089,099,108,4.2,5.0,5.4,17.3,91.8,1002.3,0.43,520,1.1,////,0.0,0,0.0,////,16.2,0.0,12.3,3.515
2014/04/01,13:20:01,043,065,079,2.4,2.9,3.2,17.2,91.9,1002.3,0.03,240,0.0,////,0.0,0,0.0,////,16.0,0.0,12.3,3.515
2014/04/01,13:30:01,063,064,066,3.3,3.9,4.2,17.1,91.6,1002.2,0.02,350,0.0,////,0.0,0,0.0,////,16.3,0.0,12.3,3.515
2014/04/01,13:40:01,117,121,128,2.4,3.4,4.5,17.4,92.0,1002.0,0.00,10,0.0,////,0.0,0,0.0,////,16.3,0.0,12.3,3.515
2014/04/01,13:50:01,098,100,102,3.9,4.4,4.7,17.5,92.2,1001.7,0.06,240,1.8,////,0.0,0,0.0,////,16.3,0.0,12.3,3.516
2014/04/01,14:00:01,063,079,101,4.4,4.8,5.3,17.4,92.3,1001.5,0.03,240,0.0,////,0.0,0,0.0,////,16.3,0.0,12.4,3.514
2014/04/01,14:10:01,082,091,103,4.2,4.8,5.7,17.1,92.1,1001.3,0.02,110,0.5,////,0.0,0,0.0,////,16.2,0.0,12.3,3.515
2014/04/01,14:20:01,090,096,100,3.6,5.6,7.5,17.4,92.3,1001.0,0.00,190,0.0,////,0.0,0,0.0,////,16.7,0.0,12.3,3.516
2014/04/01,14:30:01,098,099,100,6.2,6.6,7.1,17.8,92.5,1000.6,0.00,0,0.0,////,0.0,0,0.0,////,17.0,0.0,12.3,3.514
2014/04/01,14:40:01,097,099,102,3.8,5.1,6.5,17.7,92.0,1000.6,0.00,0,0.0,////,0.0,0,0.0,////,17.0,0.0,12.3,3.516
2014/04/01,14:50:01,093,102,115,3.6,4.2,4.8,17.7,92.1,1000.7,0.00,0,0.0,////,0.0,0,0.0,////,16.9,0.0,12.3,3.515
2014/04/01,15:00:01,082,089,098,5.2,5.7,6.4,18.0,92.3,1000.5,0.00,0,0.0,////,0.0,0,0.0,////,17.4,0.0,12.3,3.518
2014/04/01,15:10:01,085,093,110,5.6,6.1,6.8,18.0,92.2,1000.6,0.00,0,0.0,////,0.0,0,0.0,////,17.2,0.0,12.3,3.515
2014/04/01,15:20:01,087,102,114,7.8,8.8,10.0,17.8,91.7,1000.5,0.00,0,0.0,////,0.0,0,0.0,////,17.0,0.0,12.3,3.516
2014/04/01,15:30:01,101,106,108,5.6,6.2,6.7,17.8,91.6,1000.5,0.00,0,0.0,////,0.0,0,0.0,////,17.0,0.0,12.3,3.515
2014/04/01,15:40:01,102,105,109,7.9,8.3,8.6,17.6,91.4,1000.6,0.00,0,0.0,////,0.0,0,0.0,////,16.7,0.0,12.3,3.515
2014/04/01,15:50:01,085,095,100,5.7,6.6,7.4,17.7,91.2,1000.4,0.00,0,0.0,////,0.0,0,0.0,////,17.2,0.0,12.3,3.516
2014/04/01,16:00:01,086,098,119,5.0,5.3,5.6,17.8,90.9,1000.6,0.00,0,0.0,////,0.0,0,0.0,////,17.0,0.0,12.3,3.516
2014/04/01,16:10:01,100,108,116,6.1,6.7,7.1,17.8,90.9,1000.8,0.00,0,0.0,////,0.0,0,0.0,////,16.9,0.0,12.3,3.515
2014/04/01,16:20:01,110,111,113,5.5,5.6,5.7,17.7,90.8,1000.7,0.00,10,0.0,////,0.0,0,0.0,////,16.5,0.0,12.3,3.516
2014/04/01,16:30:01,089,095,102,5.0,5.3,5.6,17.7,90.5,1000.7,0.02,280,0.1,////,0.0,0,0.0,////,16.9,0.0,12.3,3.515
2014/04/01,16:40:01,101,106,112,3.7,4.5,5.4,17.8,90.4,1000.6,0.00,80,0.0,////,0.0,0,0.0,////,16.9,0.0,12.3,3.514
2014/04/01,16:50:01,065,077,084,6.4,6.7,7.0,17.8,90.0,1000.8,0.00,0,0.0,////,0.0,0,0.0,////,16.7,0.0,12.2,3.514
2014/04/01,17:00:01,100,104,107,2.9,3.2,3.6,17.8,90.0,1000.7,0.00,0,0.0,////,0.0,0,0.0,////,16.7,0.0,12.3,3.514
2014/04/01,17:10:01,085,100,116,3.0,3.8,4.3,17.9,89.8,1000.7,0.00,0,0.0,////,0.0,0,0.0,////,16.9,0.0,12.3,3.514
2014/04/01,17:20:01,076,078,081,6.0,6.4,6.7,18.0,89.6,1000.8,0.00,0,0.0,////,0.0,0,0.0,////,17.0,0.0,12.3,3.514
2014/04/01,17:30:01,055,075,098,2.3,2.8,3.7,18.2,89.7,1000.8,0.00,0,0.0,////,0.0,0,0.0,////,17.2,0.0,12.3,3.513
2014/04/01,17:40:01,050,073,093,2.6,3.8,4.8,18.3,89.9,1000.9,0.00,0,0.0,////,0.0,0,0.0,////,17.4,0.0,12.3,3.515
2014/04/01,17:50:01,042,053,070,4.9,5.6,6.0,18.2,89.6,1001.0,0.00,20,0.0,////,0.0,0,0.0,////,17.2,0.0,12.3,3.514
2014/04/01,18:00:01,038,047,053,5.4,6.1,7.0,18.1,89.5,1001.2,0.00,10,0.0,////,0.0,0,0.0,////,17.2,0.0,12.3,3.513
2014/04/01,18:10:01,074,080,084,4.9,5.1,5.3,18.3,89.5,1001.4,0.00,0,0.0,////,0.0,0,0.0,////,17.0,0.0,12.3,3.516
2014/04/01,18:20:01,077,088,102,3.8,4.6,5.4,18.3,89.4,1001.4,0.00,0,0.0,////,0.0,0,0.0,////,17.2,0.0,12.3,3.514
2014/04/01,18:30:01,060,068,078,5.7,6.2,6.9,18.2,88.9,1001.6,0.00,0,0.0,////,0.0,0,0.0,////,17.0,0.0,12.3,3.514
2014/04/01,18:40:01,082,087,096,1.8,2.1,2.7,18.5,88.9,1001.8,0.00,0,0.0,////,0.0,0,0.0,////,17.2,0.0,12.3,3.515
2014/04/01,18:50:01,093,102,107,3.9,5.0,5.8,18.4,89.3,1002.1,0.00,0,0.0,////,0.0,0,0.0,////,17.0,0.0,12.3,3.514
2014/04/01,19:00:01,047,058,074,2.6,3.5,4.8,18.1,89.9,1002.2,0.00,0,0.0,////,0.0,0,0.0,////,16.7,0.0,12.3,3.513
2014/04/01,19:10:01,044,064,076,1.9,2.5,3.9,18.2,90.2,1002.3,0.00,0,0.0,////,0.0,0,0.0,////,16.9,0.0,12.3,3.514
2014/04/01,19:20:01,052,055,058,6.0,6.9,8.2,18.2,89.9,1002.3,0.00,0,0.0,////,0.0,0,0.0,////,16.9,0.0,12.3,3.514
2014/04/01,19:30:01,085,087,089,6.8,7.6,8.1,18.2,89.8,1002.3,0.00,0,0.0,////,0.0,0,0.0,////,16.9,0.0,12.3,3.513
2014/04/01,19:40:01,039,047,061,4.7,5.1,5.4,18.2,90.5,1002.3,0.02,80,0.0,////,0.0,0,0.0,////,16.9,0.0,12.3,3.513
2014/04/01,19:50:01,348,031,086,3.2,4.9,5.7,18.0,91.6,1002.5,0.00,0,0.0,////,0.0,0,0.0,////,16.7,0.0,12.3,3.515
2014/04/01,20:00:01,088,092,101,6.4,8.0,9.5,17.9,92.0,1002.8,0.00,0,0.0,////,0.0,0,0.0,////,17.2,0.0,12.3,3.515
2014/04/01,20:10:01,042,050,058,3.8,4.3,4.8,17.9,92.3,1003.0,0.00,0,0.0,////,0.0,0,0.0,////,17.2,0.0,12.3,3.515
2014/04/01,20:20:01,041,046,049,6.6,6.8,7.1,17.9,92.5,1003.2,0.00,0,0.0,////,0.0,0,0.0,////,16.7,0.0,12.3,3.514
2014/04/01,20:30:01,051,055,060,6.0,6.7,7.4,17.7,92.5,1003.3,0.00,20,0.0,////,0.0,0,0.0,////,16.7,0.0,12.3,3.514
2014/04/01,20:40:01,046,052,062,5.7,6.0,6.3,17.6,92.6,1003.3,0.00,0,0.0,////,0.0,0,0.0,////,16.3,0.0,12.3,3.515
2014/04/01,20:50:01,042,044,046,3.6,4.6,5.4,17.8,93.1,1003.3,0.00,0,0.0,////,0.0,0,0.0,////,16.7,0.0,12.3,3.515
2014/04/01,21:00:01,060,070,083,5.4,6.2,7.4,17.8,93.1,1003.4,0.00,0,0.0,////,0.0,0,0.0,////,16.7,0.0,12.3,3.514
2014/04/01,21:10:01,052,064,079,4.7,5.2,5.8,17.8,93.2,1003.5,0.00,0,0.0,////,0.0,0,0.0,////,16.5,0.0,12.3,3.515
2014/04/01,21:20:01,045,057,073,6.6,7.4,8.2,17.8,93.0,1003.4,0.00,30,0.0,////,0.0,0,0.0,////,16.7,0.0,12.3,3.514
2014/04/01,21:30:01,042,055,064,10.1,10.6,11.5,17.8,93.0,1003.4,0.00,0,0.0,////,0.0,0,0.0,////,16.7,0.0,12.3,3.516
2014/04/01,21:40:01,048,060,069,5.5,6.3,6.9,17.8,92.7,1003.2,0.00,0,0.0,////,0.0,0,0.0,////,16.5,0.0,12.3,3.516
2014/04/01,21:50:01,042,054,073,3.4,3.7,4.1,18.0,92.3,1003.0,0.00,0,0.0,////,0.0,0,0.0,////,16.9,0.0,12.3,3.513
2014/04/01,22:00:01,099,102,108,4.0,5.2,6.3,17.9,91.7,1003.1,0.00,0,0.0,////,0.0,0,0.0,////,16.9,0.0,12.3,3.515
2014/04/01,22:10:01,057,071,083,5.6,6.7,7.4,17.9,91.3,1003.1,0.00,0,0.0,////,0.0,0,0.0,////,16.7,0.0,12.3,3.515
2014/04/01,22:20:01,053,062,073,6.8,7.3,7.7,17.9,90.7,1002.9,0.00,0,0.0,////,0.0,0,0.0,////,17.0,0.0,12.3,3.514
2014/04/01,22:30:01,085,091,095,7.3,8.3,10.3,17.9,89.7,1002.7,0.00,0,0.0,////,0.0,0,0.0,////,16.9,0.0,12.3,3.515
2014/04/01,22:40:01,028,041,052,6.4,7.5,9.2,18.1,89.1,1002.8,0.00,0,0.0,////,0.0,0,0.0,////,17.0,0.0,12.3,3.514
2014/04/01,22:50:01,070,082,095,3.5,5.5,6.6,18.1,88.2,1002.8,0.00,0,0.0,////,0.0,0,0.0,////,17.2,0.0,12.3,3.515
2014/04/01,23:00:01,055,072,092,6.1,7.0,7.7,18.1,87.4,1002.8,0.00,0,0.0,////,0.0,0,0.0,////,17.2,0.0,12.3,3.516
2014/04/01,23:10:01,079,093,103,4.1,4.5,5.1,18.1,87.8,1002.8,0.00,0,0.0,////,0.0,0,0.0,////,17.0,0.0,12.3,3.515
2014/04/01,23:20:01,080,085,093,5.4,6.1,6.7,18.1,87.9,1002.7,0.00,0,0.0,////,0.0,0,0.0,////,17.2,0.0,12.3,3.515
2014/04/01,23:30:01,056,065,081,5.0,5.8,6.9,18.0,87.1,1002.6,0.00,0,0.0,////,0.0,0,0.0,////,17.0,0.0,12.3,3.513
2014/04/01,23:40:01,062,070,082,7.1,8.8,10.4,18.2,86.9,1002.5,0.00,0,0.0,////,0.0,0,0.0,////,17.2,0.0,12.3,3.515
2014/04/01,23:50:01,055,070,081,5.9,6.3,6.8,18.3,86.2,1002.6,0.00,0,0.0,////,0.0,0,0.0,////,17.2,0.0,12.3,3.514
2014/04/02,00:00:01,055,059,061,4.8,5.7,6.9,18.3,85.4,1002.7,0.00,0,0.0,////,0.0,0,0.0,////,17.5,0.0,12.3,3.518
2014/04/02,00:10:01,062,076,090,4.3,4.7,4.9,18.3,85.8,1002.6,0.00,0,0.0,////,0.0,0,0.0,////,17.2,0.0,12.3,3.515
2014/04/02,00:20:01,065,082,092,5.9,6.4,6.7,18.3,85.3,1002.7,0.00,0,0.0,////,0.0,0,0.0,////,17.4,0.0,12.3,3.514
2014/04/02,00:30:01,054,061,067,4.9,6.2,7.5,18.4,85.6,1002.4,0.00,0,0.0,////,0.0,0,0.0,////,17.4,0.0,12.3,3.515
2014/04/02,00:40:01,066,071,079,5.6,5.9,6.5,18.4,85.2,1002.8,0.00,0,0.0,////,0.0,0,0.0,////,17.4,0.0,12.3,3.515
2014/04/02,00:50:01,051,060,083,6.1,8.3,8.9,18.5,85.2,1003.0,0.00,0,0.0,////,0.0,0,0.0,////,17.5,0.0,12.3,3.515
2014/04/02,01:00:01,050,058,065,5.5,7.4,8.9,18.4,85.0,1002.9,0.00,0,0.0,////,0.0,0,0.0,////,17.4,0.0,12.3,3.515
2014/04/02,01:10:01,075,085,093,6.0,6.7,7.0,18.5,85.0,1002.9,0.00,0,0.0,////,0.0,0,0.0,////,17.4,0.0,12.3,3.515
2014/04/02,01:20:01,065,082,105,3.5,4.2,5.0,18.5,85.0,1003.1,0.00,0,0.0,////,0.0,0,0.0,////,17.5,0.0,12.3,3.515
2014/04/02,01:30:01,064,068,072,4.8,5.0,5.3,18.6,84.3,1003.2,0.00,0,0.0,////,0.0,0,0.0,////,17.7,0.0,12.3,3.515
2014/04/02,01:40:01,019,036,049,2.6,3.2,4.2,18.6,83.7,1003.3,0.00,0,0.0,////,0.0,0,0.0,////,17.5,0.0,12.3,3.513
2014/04/02,01:50:01,060,072,091,5.6,5.8,5.9,18.6,84.2,1002.9,0.00,0,0.0,////,0.0,0,0.0,////,17.5,0.0,12.3,3.515
2014/04/02,02:00:01,050,070,080,3.3,4.8,5.6,18.6,84.9,1002.7,0.00,0,0.0,////,0.0,0,0.0,////,17.7,0.0,12.3,3.515
2014/04/02,02:10:01,044,046,049,6.1,6.8,7.2,18.7,85.3,1002.7,0.00,0,0.0,////,0.0,0,0.0,////,17.5,0.0,12.3,3.515
2014/04/02,02:20:01,012,033,067,2.4,2.8,3.3,18.7,85.7,1002.9,0.00,0,0.0,////,0.0,0,0.0,////,17.5,0.0,12.3,3.515
2014/04/02,02:30:01,067,083,095,3.0,3.8,4.8,18.7,85.9,1002.8,0.00,0,0.0,////,0.0,0,0.0,////,18.1,0.0,12.3,3.515
2014/04/02,02:40:01,077,082,087,5.5,6.0,6.3,18.7,84.6,1003.0,0.00,0,0.0,////,0.0,0,0.0,////,17.7,0.0,12.3,3.514
2014/04/02,02:50:01,059,063,067,5.4,5.6,5.9,18.8,84.5,1003.0,0.00,0,0.0,////,0.0,0,0.0,////,17.7,0.0,12.3,3.511
2014/04/02,03:00:01,055,080,103,3.2,3.7,4.0,18.7,85.1,1002.9,0.00,0,0.0,////,0.0,0,0.0,////,17.5,0.0,12.3,3.515
2014/04/02,03:10:01,039,056,069,3.4,4.0,4.4,18.8,85.2,1002.7,0.00,0,0.0,////,0.0,0,0.0,////,17.7,0.0,12.3,3.515
2014/04/02,03:20:01,023,049,065,3.5,4.6,5.5,18.8,84.5,1002.5,0.00,0,0.0,////,0.0,0,0.0,////,17.7,0.0,12.3,3.515
2014/04/02,03:30:01,053,068,084,4.2,4.4,4.7,18.8,85.4,1003.1,0.00,0,0.0,////,0.0,0,0.0,////,17.9,0.0,12.3,3.514
2014/04/02,03:40:01,073,082,088,4.6,5.3,5.7,18.6,86.4,1003.1,0.00,0,0.0,////,0.0,0,0.0,////,17.4,0.0,12.3,3.516
2014/04/02,03:50:01,076,082,085,4.0,5.8,7.5,18.5,87.4,1003.1,0.00,0,0.0,////,0.0,0,0.0,////,17.5,0.0,12.3,3.514
2014/04/02,04:00:01,044,054,063,2.8,3.2,3.5,18.5,87.7,1002.9,0.00,0,0.0,////,0.0,0,0.0,////,17.4,0.0,12.3,3.515
2014/04/02,04:10:01,054,062,075,5.3,6.0,7.0,18.4,88.1,1002.7,0.00,10,0.0,////,0.0,0,0.0,////,17.2,0.0,12.3,3.516
2014/04/02,04:20:01,087,091,095,2.9,4.0,4.8,18.3,88.8,1002.9,0.00,0,0.0,////,0.0,0,0.0,////,17.0,0.0,12.3,3.515
2014/04/02,04:30:01,057,060,064,6.4,7.0,7.5,18.3,89.1,1003.0,0.00,0,0.0,////,0.0,0,0.0,////,17.2,0.0,12.3,3.514
2014/04/02,04:40:01,049,076,098,4.0,4.3,4.6,18.2,88.9,1003.1,0.00,0,0.0,////,0.0,0,0.0,////,16.5,0.0,12.3,3.515
2014/04/02,04:50:01,068,080,091,3.5,4.1,5.2,18.2,88.5,1003.1,0.00,0,0.0,////,0.0,0,0.0,////,17.2,0.0,12.3,3.515
2014/04/02,05:00:01,024,051,083,3.2,3.5,3.8,18.3,88.2,1003.1,0.00,0,0.0,////,0.0,0,0.0,////,17.4,0.0,12.3,3.513
2014/04/02,05:10:01,046,063,082,3.4,3.6,3.9,18.2,87.8,1003.3,0.00,0,0.0,////,0.0,0,0.0,////,17.4,0.0,12.3,3.516
2014/04/02,05:20:01,071,092,102,4.7,5.2,6.3,18.3,87.7,1003.4,0.00,0,0.0,////,0.0,0,0.0,////,17.4,0.0,12.3,3.515
2014/04/02,05:30:01,045,058,069,5.2,6.6,7.6,18.3,87.3,1003.4,0.00,0,0.0,////,0.0,0,0.0,////,17.4,0.0,12.3,3.518
2014/04/02,05:40:01,063,067,071,3.1,3.6,4.2,18.3,86.0,1003.7,0.00,0,0.0,////,0.0,0,0.0,////,17.4,0.0,12.3,3.513
2014/04/02,05:50:01,062,067,074,5.5,6.1,6.8,18.4,85.7,1003.8,0.00,0,0.0,////,0.0,0,0.0,////,17.4,0.0,12.3,3.515
2014/04/02,06:00:01,092,101,114,3.3,3.9,4.5,18.5,85.9,1003.9,0.00,0,0.0,////,0.0,0,0.0,////,17.4,0.0,12.3,3.515
2014/04/02,06:10:01,066,087,112,3.1,3.6,4.1,18.5,84.9,1004.1,0.00,0,0.0,////,0.0,0,0.0,////,17.5,0.0,12.3,3.515
2014/04/02,06:20:01,048,060,067,5.3,5.6,6.0,18.6,84.8,1004.2,0.00,0,0.0,////,0.0,0,0.0,////,17.7,0.0,12.3,3.514
2014/04/02,06:30:01,055,067,080,3.0,4.1,5.8,18.5,84.0,1004.2,0.00,0,0.0,////,0.0,0,0.0,////,17.5,0.0,12.3,3.515
2014/04/02,06:40:01,056,060,068,5.6,6.2,7.1,18.5,84.3,1003.9,0.01,10,0.0,////,0.0,0,0.0,////,17.4,0.0,12.3,3.515
2014/04/02,06:50:01,066,080,091,5.6,5.8,6.0,18.5,83.6,1004.3,0.00,0,0.0,////,0.0,0,0.0,////,17.5,0.0,12.3,3.515
2014/04/02,07:00:01,080,090,094,4.0,4.5,5.2,18.6,82.9,1004.2,0.00,0,0.0,////,0.0,0,0.0,////,17.5,0.0,12.3,3.515
2014/04/02,07:10:01,046,064,078,4.4,4.9,5.3,18.7,81.5,1004.1,0.00,0,0.0,////,0.0,0,0.0,////,17.9,0.0,12.3,3.516
2014/04/02,07:20:01,062,068,072,6.0,7.1,8.1,18.8,81.9,1004.2,0.00,0,0.0,////,0.0,0,0.0,////,18.1,0.0,12.3,3.514
2014/04/02,07:30:01,054,062,068,3.9,6.1,7.9,18.9,82.0,1004.3,0.00,0,0.0,////,0.0,0,0.0,////,18.2,0.0,12.3,3.514
2014/04/02,07:40:01,078,082,085,4.6,6.6,7.8,19.0,82.8,1004.5,0.00,0,0.0,////,0.0,0,0.0,////,18.2,0.0,12.3,3.514
2014/04/02,07:50:01,094,114,131,1.9,2.7,3.9,19.0,82.7,1004.7,0.00,0,0.0,////,0.0,0,0.0,////,18.6,0.0,12.2,3.515
2014/04/02,08:00:01,082,085,089,4.4,4.6,4.8,19.0,83.3,1005.0,0.00,0,0.0,////,0.0,0,0.0,////,18.4,0.0,12.3,3.514
2014/04/02,08:10:01,055,070,088,3.4,3.8,4.0,19.0,83.6,1004.8,0.00,0,0.0,////,0.0,0,0.0,////,18.2,0.0,12.3,3.515
2014/04/02,08:20:01,097,100,106,4.7,5.1,5.5,19.0,83.1,1004.8,0.00,0,0.0,////,0.0,0,0.0,////,18.6,0.0,12.3,3.516
2014/04/02,08:30:01,110,116,121,4.4,5.0,5.8,19.1,82.8,1004.9,0.00,0,0.0,////,0.0,0,0.0,////,19.3,0.0,12.3,3.516
2014/04/02,08:40:01,055,061,066,4.4,4.6,4.9,19.3,82.9,1005.0,0.00,0,0.0,////,0.0,0,0.0,////,19.3,0.0,12.3,3.514
2014/04/02,08:50:01,083,090,096,4.6,5.8,6.9,19.3,83.8,1005.2,0.00,0,0.0,////,0.0,0,0.0,////,19.3,0.0,12.3,3.515
2014/04/02,09:00:01,076,079,083,2.8,3.3,3.9,19.4,83.2,1005.5,0.00,0,0.0,////,0.0,0,0.0,////,20.1,0.0,12.3,3.514
2014/04/02,09:10:01,050,071,087,3.3,3.6,3.9,19.3,83.6,1005.5,0.00,0,0.0,////,0.0,0,0.0,////,19.8,0.0,12.3,3.515
2014/04/02,09:20:01,069,080,086,1.8,2.5,3.3,19.1,83.8,1005.6,0.00,0,0.0,////,0.0,0,0.0,////,19.1,0.0,12.3,3.510
2014/04/02,09:30:01,077,088,097,3.9,4.2,4.7,19.1,84.0,1005.7,0.00,0,0.0,////,0.0,0,0.0,////,18.9,0.0,12.3,3.514
2014/04/02,09:40:01,054,059,068,3.9,4.6,5.0,19.1,83.9,1005.6,0.00,0,0.0,////,0.0,0,0.0,////,19.1,0.0,12.3,3.515
2014/04/02,09:50:01,059,075,091,3.3,4.1,4.8,19.4,82.6,1005.6,0.00,0,0.0,////,0.0,0,0.0,////,19.8,0.0,12.3,3.514
2014/04/02,10:00:01,081,093,112,1.4,2.3,3.4,19.4,82.7,1005.8,0.00,0,0.0,////,0.0,0,0.0,////,19.6,0.0,12.3,3.514
2014/04/02,10:10:01,052,071,086,3.7,4.3,4.9,19.4,81.6,1005.7,0.00,0,0.0,////,0.0,0,0.0,////,19.6,0.0,12.3,3.516
2014/04/02,10:20:01,059,063,068,4.5,4.7,4.9,19.5,81.6,1005.9,0.00,0,0.0,////,0.0,0,0.0,////,19.4,0.0,12.3,3.515
2014/04/02,10:30:01,073,090,111,3.5,3.9,4.2,19.5,81.5,1005.8,0.00,0,0.0,////,0.0,0,0.0,////,19.4,0.0,12.3,3.516